Flag for China Weather past 2 weeks in Chengdu, Sichuan, China

Now
43 °F

Passing clouds.


Feels Like: 38 °F
Forecast: 41 / 45 °F
Wind: 8 mph from Northeast

Location: Chengdu Airport

Current Time: Jan 30, 2015 at 9:09:00 PM

Latest Report: Jan 30, 2015 at 8:00 PM


Visibility: N/A

Pressure: 30.30 "Hg

Humidity: 53%

Dew point: 27 °F

Location of ChengduLocation

Historic Weather in Chengdu — Graph

°F

Chengdu temperature yesterday

Maximum temperature yesterday: 48 °F (at 3:00 PM)
Minimum temperature yesterday: 39 °F (at 8:00 AM)
Average temperature yesterday: 43 °F

Past Weeks' High & Low Weather Summary

 TemperatureHumidityPressure
High63 °F (Jan 21, 4:00 PM)93% (Jan 16, 4:00 AM)30.48 "Hg (Jan 16, 4:00 AM)
Low37 °F (Jan 21, 8:00 AM)31% (Jan 21, 3:00 PM)29.80 "Hg (Jan 23, 4:00 PM)
Average49 °F71%30.15 "Hg
* Reported Jan 15 8:00 PM — Jan 30 8:00 PM, Chengdu, Weather by CustomWeather, © 2014

Note: Actual official high and low records may vary slightly from our data, if they occured in-between our weather recording intervals... More about our weather records

Advertising

Chengdu weather history for previous 24 hours

 ConditionsComfort  
Time TempWeatherWind HumidityBarometerVisibility
8:00 PM
Jan 30
43 °FPassing clouds.8 mph53%30.30 "HgN/A
7:00 PM43 °FPassing clouds.6 mph53%30.27 "HgN/A
6:00 PM43 °FScattered clouds.8 mph49%30.24 "HgN/A
5:00 PM43 °FScattered clouds.8 mph53%30.24 "HgN/A
4:00 PM45 °FLight rain. Scattered clouds.6 mph53%30.21 "HgN/A
3:00 PM45 °FScattered clouds.6 mph53%30.21 "HgN/A
2:00 PM45 °FPassing clouds.3 mph53%30.24 "HgN/A
1:00 PM45 °FPassing clouds.3 mph53%30.27 "HgN/A
12:00 PM45 °FPassing clouds.3 mph57%30.30 "HgN/A
11:00 AM45 °FScattered clouds.3 mph57%30.33 "Hg5 mi
10:00 AM43 °FScattered clouds.3 mph57%30.33 "Hg5 mi
9:00 AM43 °FScattered clouds.3 mph66%30.33 "Hg4 mi
8:00 AM43 °FScattered clouds.3 mph61%30.30 "Hg4 mi
7:00 AM43 °FPassing clouds.1 mph71%30.27 "Hg4 mi
6:00 AM41 °FPassing clouds.No wind81%30.27 "Hg4 mi
5:00 AM41 °FPassing clouds.No wind81%30.27 "Hg4 mi
4:00 AM41 °FPassing clouds.1 mph81%30.30 "Hg4 mi
3:00 AM41 °FPassing clouds.No wind81%30.30 "Hg5 mi
2:00 AM43 °FPassing clouds.No wind66%30.30 "HgN/A
1:00 AM43 °FPassing clouds.No wind66%30.33 "HgN/A
12:00 AM43 °FPassing clouds.1 mph71%30.33 "HgN/A
11:00 PM
Jan 29
45 °FPassing clouds.No wind57%30.33 "HgN/A
10:00 PM43 °FPassing clouds.No wind66%30.30 "HgN/A
9:00 PM45 °FPassing clouds.No wind49%30.30 "HgN/A
Weather by CustomWeather, © 2014

See weather overviewHow to use our weather pages